When you browse on this site, cookies collect data to enhance your experience and personalize the content and advertising you see.
Visit our Privacy Policy to learn more. By continuing to use the site, you agree to this use of cookies and data.
  • In Hungary
  • List of Countries
  • For 7 days
  • Water Temperature
  • Satellite Maps
  • Weather Map
  • News
  • Weather Widgets
  • user-avatar
    Login

    Hourly Weather Ipora

    Today, 17 January, Thursday

    Time Temperature Precipitation Wind Pressure Humidity
    00:00 +28°C° 0 mm 2 mps 729 mmHg 70%
    01:00 +28°C° 0 mm 3 mps 729 mmHg 74%
    02:00 +27°C° 0 mm 3 mps 729 mmHg 82%
    03:00 +27°C° 0 mm 2 mps 729 mmHg 84%
    04:00 +26°C° 0 mm 2 mps 729 mmHg 85%
    05:00 +26°C° 0 mm 2 mps 729 mmHg 87%
    06:00 +28°C° 0.1 mm 3 mps 729 mmHg 82%
    07:00 +29°C° 0.1 mm 3 mps 730 mmHg 77%
    08:00 +32°C° 0.1 mm 4 mps 730 mmHg 72%
    09:00 +33°C° 0.5 mm 4 mps 730 mmHg 66%
    10:00 +35°C° 0.5 mm 4 mps 730 mmHg 60%
    11:00 +36°C° 0.5 mm 3 mps 730 mmHg 53%
    12:00 +36°C° 0 mm 3 mps 730 mmHg 51%
    13:00 +37°C° 0 mm 3 mps 729 mmHg 48%
    14:00 +38°C° 0 mm 2 mps 729 mmHg 45%
    15:00 +37°C° 0 mm 2 mps 729 mmHg 48%
    16:00 +37°C° 0 mm 2 mps 728 mmHg 51%
    17:00 +36°C° 0 mm 2 mps 728 mmHg 54%
    18:00 +35°C° 0 mm 2 mps 728 mmHg 58%
    19:00 +32°C° 0 mm 2 mps 728 mmHg 61%
    20:00 +30°C° 0 mm 2 mps 728 mmHg 65%
    21:00 +30°C° 0 mm 2 mps 728 mmHg 66%
    22:00 +29°C° 0 mm 2 mps 728 mmHg 68%
    23:00 +29°C° 0 mm 2 mps 728 mmHg 69%

    Tomorrow, 18 January, Friday

    Time Temperature Precipitation Wind Pressure Humidity
    00:00 +28°C° 0 mm 2 mps 728 mmHg 70%
    01:00 +28°C° 0 mm 3 mps 728 mmHg 71%
    02:00 +28°C° 0 mm 3 mps 728 mmHg 72%
    03:00 +27°C° 0.5 mm 3 mps 728 mmHg 77%
    04:00 +26°C° 0.5 mm 3 mps 728 mmHg 82%
    05:00 +25°C° 0.5 mm 2 mps 728 mmHg 87%
    06:00 +26°C° 0 mm 3 mps 729 mmHg 85%
    07:00 +28°C° 0 mm 3 mps 729 mmHg 83%
    08:00 +29°C° 0 mm 4 mps 730 mmHg 80%
    09:00 +30°C° 0.4 mm 4 mps 730 mmHg 75%
    10:00 +32°C° 0.4 mm 4 mps 730 mmHg 70%
    11:00 +33°C° 0.4 mm 4 mps 730 mmHg 65%
    12:00 +34°C° 1.5 mm 4 mps 729 mmHg 63%
    13:00 +34°C° 1.5 mm 4 mps 729 mmHg 62%
    14:00 +34°C° 1.5 mm 4 mps 728 mmHg 61%
    15:00 +34°C° 0 mm 3 mps 728 mmHg 62%
    16:00 +34°C° 0 mm 2 mps 727 mmHg 63%
    17:00 +31°C° 0 mm 0 mps 727 mmHg 64%
    18:00 +31°C° 0 mm 1 mps 727 mmHg 65%
    19:00 +30°C° 0 mm 1 mps 727 mmHg 65%
    20:00 +29°C° 0 mm 1 mps 727 mmHg 66%
    21:00 +28°C° 0 mm 1 mps 727 mmHg 68%
    22:00 +28°C° 0 mm 1 mps 728 mmHg 70%
    23:00 +27°C° 0 mm 1 mps 728 mmHg 72%

    Day after tomorrow, 19 January, Saturday

    Time Temperature Precipitation Wind Pressure Humidity
    00:00 +25°C° 0 mm 0 mps 727 mmHg 74%
    01:00 +24°C° 0 mm 0 mps 727 mmHg 77%
    02:00 +24°C° 0 mm 0 mps 726 mmHg 79%
    03:00 +26°C° 0 mm 1 mps 726 mmHg 81%
    04:00 +26°C° 0 mm 1 mps 727 mmHg 83%
    05:00 +25°C° 0 mm 1 mps 727 mmHg 85%
    06:00 +26°C° 0 mm 2 mps 727 mmHg 84%
    07:00 +27°C° 0 mm 2 mps 728 mmHg 82%
    08:00 +28°C° 0 mm 2 mps 729 mmHg 81%
    09:00 +29°C° 0.4 mm 2 mps 729 mmHg 78%
    10:00 +30°C° 0.4 mm 2 mps 729 mmHg 74%
    11:00 +31°C° 0.4 mm 2 mps 729 mmHg 71%
    12:00 +31°C° 0.9 mm 3 mps 728 mmHg 70%
    13:00 +33°C° 0.9 mm 3 mps 728 mmHg 68%
    14:00 +33°C° 0.9 mm 3 mps 727 mmHg 67%
    15:00 +31°C° 1.8 mm 3 mps 727 mmHg 72%
    16:00 +30°C° 1.8 mm 3 mps 726 mmHg 76%
    17:00 +30°C° 1.8 mm 3 mps 726 mmHg 80%
    18:00 +28°C° 0.4 mm 3 mps 727 mmHg 83%
    19:00 +27°C° 0.4 mm 3 mps 727 mmHg 85%
    20:00 +26°C° 0.4 mm 3 mps 727 mmHg 88%
    21:00 +26°C° 0 mm 2 mps 727 mmHg 88%
    22:00 +25°C° 0 mm 2 mps 728 mmHg 88%
    23:00 +25°C° 0 mm 2 mps 728 mmHg 89%

    20 January, Sunday

    Time Temperature Precipitation Wind Pressure Humidity
    00:00 +24°C° 0 mm 2 mps 727 mmHg 89%
    01:00 +24°C° 0 mm 2 mps 727 mmHg 90%
    02:00 +24°C° 0 mm 2 mps 726 mmHg 90%
    03:00 +23°C° 0 mm 2 mps 726 mmHg 91%
    04:00 +23°C° 0 mm 2 mps 726 mmHg 91%
    05:00 +23°C° 0 mm 1 mps 727 mmHg 92%
    06:00 +25°C° 0 mm 1 mps 727 mmHg 88%
    07:00 +26°C° 0 mm 1 mps 728 mmHg 83%
    08:00 +26°C° 0 mm 0 mps 728 mmHg 78%
    09:00 +29°C° 0.6 mm 1 mps 728 mmHg 73%
    10:00 +30°C° 0.6 mm 1 mps 728 mmHg 68%
    11:00 +32°C° 0.6 mm 1 mps 728 mmHg 64%
    12:00 +32°C° 0.1 mm 1 mps 727 mmHg 60%
    13:00 +33°C° 0.1 mm 1 mps 727 mmHg 57%
    14:00 +34°C° 0.1 mm 1 mps 726 mmHg 54%
    15:00 +34°C° 0.1 mm 1 mps 726 mmHg 55%
    16:00 +33°C° 0.1 mm 1 mps 726 mmHg 57%
    17:00 +33°C° 0.1 mm 1 mps 726 mmHg 59%
    18:00 +32°C° 0.2 mm 1 mps 726 mmHg 64%
    19:00 +30°C° 0.2 mm 2 mps 727 mmHg 70%
    20:00 +28°C° 0.2 mm 3 mps 727 mmHg 75%
    21:00 +27°C° 0.1 mm 3 mps 727 mmHg 79%
    22:00 +27°C° 0.1 mm 2 mps 727 mmHg 84%
    23:00 +26°C° 0.1 mm 2 mps 727 mmHg 88%

    21 January, Monday

    Time Temperature Precipitation Wind Pressure Humidity
    00:00 +26°C° 0 mm 2 mps 727 mmHg 89%
    01:00 +26°C° 0 mm 2 mps 727 mmHg 89%
    02:00 +25°C° 0 mm 1 mps 726 mmHg 90%
    03:00 +25°C° 0 mm 1 mps 727 mmHg 91%
    04:00 +25°C° 0 mm 2 mps 727 mmHg 92%
    05:00 +24°C° 0 mm 2 mps 727 mmHg 93%
    06:00 +26°C° 0 mm 2 mps 728 mmHg 87%
    07:00 +28°C° 0 mm 2 mps 728 mmHg 82%
    08:00 +29°C° 0 mm 3 mps 729 mmHg 76%
    09:00 +30°C° 0.3 mm 3 mps 729 mmHg 70%
    10:00 +33°C° 0.3 mm 3 mps 729 mmHg 64%
    11:00 +34°C° 0.3 mm 3 mps 729 mmHg 58%
    12:00 +34°C° 1.3 mm 3 mps 728 mmHg 59%
    13:00 +34°C° 1.3 mm 3 mps 728 mmHg 60%
    14:00 +34°C° 1.3 mm 4 mps 727 mmHg 61%
    15:00 +34°C° 0.4 mm 3 mps 727 mmHg 63%
    16:00 +34°C° 0.4 mm 3 mps 727 mmHg 64%
    17:00 +34°C° 0.4 mm 2 mps 727 mmHg 66%
    18:00 +31°C° 0.5 mm 3 mps 727 mmHg 71%
    19:00 +30°C° 0.5 mm 3 mps 727 mmHg 77%
    20:00 +28°C° 0.5 mm 3 mps 728 mmHg 82%
    21:00 +28°C° 0 mm 3 mps 728 mmHg 83%
    22:00 +27°C° 0 mm 3 mps 728 mmHg 85%
    23:00 +27°C° 0 mm 3 mps 728 mmHg 86%

    22 January, Tuesday

    Time Temperature Precipitation Wind Pressure Humidity
    00:00 +27°C° 0 mm 2 mps 728 mmHg 87%
    01:00 +26°C° 0 mm 2 mps 728 mmHg 87%
    02:00 +26°C° 0 mm 2 mps 727 mmHg 88%
    03:00 +26°C° 0 mm 2 mps 728 mmHg 88%
    04:00 +25°C° 0 mm 2 mps 728 mmHg 89%
    05:00 +25°C° 0 mm 2 mps 728 mmHg 90%
    06:00 +27°C° 0.3 mm 2 mps 728 mmHg 86%
    07:00 +28°C° 0.3 mm 2 mps 729 mmHg 81%
    08:00 +30°C° 0.3 mm 2 mps 729 mmHg 77%
    09:00 +31°C° 0.8 mm 3 mps 729 mmHg 69%
    10:00 +34°C° 0.8 mm 3 mps 729 mmHg 62%
    11:00 +35°C° 0.8 mm 3 mps 729 mmHg 55%
    12:00 +36°C° 0.1 mm 3 mps 729 mmHg 53%
    13:00 +36°C° 0.1 mm 2 mps 728 mmHg 51%
    14:00 +36°C° 0.1 mm 2 mps 728 mmHg 50%
    15:00 +36°C° 0 mm 2 mps 727 mmHg 53%
    16:00 +36°C° 0 mm 2 mps 727 mmHg 56%
    17:00 +35°C° 0 mm 2 mps 727 mmHg 60%
    18:00 +33°C° 0 mm 3 mps 727 mmHg 66%
    19:00 +31°C° 0 mm 3 mps 727 mmHg 72%
    20:00 +29°C° 0 mm 3 mps 727 mmHg 78%
    21:00 +28°C° 0 mm 3 mps 728 mmHg 79%
    22:00 +28°C° 0 mm 3 mps 728 mmHg 79%
    23:00 +27°C° 0 mm 3 mps 728 mmHg 79%
    Show more